Regional Weather Roundup
Issued by NWS Little Rock, AR

Home | Current Version | Previous Version | Text Only | Print | Product List | Glossary Off
Versions: 1 2 3 4 5 6 7 8 9 10 11 12 13 14 15 16 17 18 19 20 21 22 23 24 25 26 27

000
ASUS44 KLZK 200805
RWRLZK

WEATHER ROUNDUP FOR ARKANSAS
NATIONAL WEATHER SERVICE LITTLE ROCK AR
300 AM CDT SUN APR 20 2014

NOTE: "FAIR" INDICATES FEW OR NO CLOUDS BELOW 12,000 FEET WITH NO
SIGNIFICANT WEATHER AND/OR OBSTRUCTIONS TO VISIBILITY.

ARZ001-003-010-029-200900-
NORTHWEST ARKANSAS

CITY           SKY/WX    TMP DP  RH WIND       PRES   REMARKS
FAYETTEVILLE   PTCLDY    50  48  93 CALM      30.16F
FORT SMITH     PTCLDY    58  52  80 CALM      30.14S
HARRISON       CLOUDY    56  48  74 SE6       30.18S
BENTONVILLE    MOCLDY    61  46  59 S3        30.16F
ROGERS         MOCLDY    60  48  64 SE7       30.17S
SILOAM SPGS    MOCLDY    57  45  62 SE5       30.16F
HIGHFILL       MOCLDY    57  48  72 CALM      30.15F
$$

ARZ004-005-016-200900-
NORTH CENTRAL ARKANSAS

CITY           SKY/WX    TMP DP  RH WIND       PRES   REMARKS
BATESVILLE     MOCLDY    54  46  76 NW5       30.17S
FLIPPIN        MOCLDY    54  43  66 CALM      30.18S
MTN HOME       PTCLDY    58  43  57 CALM      30.17S
$$

ARZ040-041-200900-
WEST CENTRAL ARKANSAS

CITY           SKY/WX    TMP DP  RH WIND       PRES   REMARKS
MENA           CLEAR     52 N/A N/A CALM      30.16S
MOUNT IDA      CLEAR     51  50  96 CALM      30.13F
$$

ARZ009-017-025-026-028-200900-
NORTHEAST ARKANSAS

CITY           SKY/WX    TMP DP  RH WIND       PRES   REMARKS
CORNING        FAIR      54  46  76 N6        30.17S
JONESBORO      CLEAR     50  45  83 CALM      30.16R
NEWPORT        CLEAR     55  51  86 NW5       30.18R
WALNUT RIDGE   CLEAR     54  48  82 N6        30.17R
BLYTHEVILLE    CLEAR     54  48  80 CALM      30.16R
$$

ARZ022-023-033-042-044-200900-
CENTRAL ARKANSAS

CITY           SKY/WX    TMP DP  RH WIND       PRES   REMARKS
LITTLE ROCK    PTCLDY    56  51  84 SW6       30.16S
N LITTLE ROCK    N/A     62  49  62 CALM      30.16S
JACKSONVILLE   PTCLDY    52  50  93 W2        30.16S
SEARCY         PTCLDY    52  48  86 CALM      30.17S
HOT SPRINGS    CLEAR     55  51  86 CALM      30.17R
RUSSELLVILLE   PTCLDY    53  50  89 CALM      30.16S
CLINTON        FAIR      50  48  93 CALM      30.19F
$$

ARZ036-200900-
EAST ARKANSAS

CITY           SKY/WX    TMP DP  RH WIND       PRES   REMARKS
WEST MEMPHIS   CLEAR     54  50  86 NW3       30.14R
$$

ARZ050-053-066-070-073-200900-
SOUTHWEST ARKANSAS

CITY           SKY/WX    TMP DP  RH WIND       PRES   REMARKS
ARKADELPHIA    FAIR      55  54  97 CALM      30.16S
CAMDEN         CLEAR     52  50  93 MISG      30.16R FOG
TEXARKANA      CLEAR     56  51  84 CALM      30.14F
EL DORADO      CLEAR     53  52  96 CALM      30.15S
DE QUEEN       PTCLDY    50  50 100 CALM      30.12F FOG
$$

ARZ056-057-069-200900-
SOUTHEAST ARKANSAS

CITY           SKY/WX    TMP DP  RH WIND       PRES   REMARKS
PINE BLUFF     CLEAR     55  53  93 CALM      30.15S
STUTTGART      CLEAR     57  52  82 N5        30.15F
MONTICELLO     CLEAR     52  49  89 CALM      30.14S

$$





USA.gov is the U.S. government's official web portal to all federal, state and local government web resources and services.